Simultaneous Nadir Overpasses (SNOs) Predictions

Prediction of SNOs between GOES-14 and NOAA-20 Satellite Orbit:

Table of predicted SNOs for the next 14.0 days since TLE Epoch: 5/5/2023
Index Date Time (GOES-14) GOES-14 Lat,Lon NOAA-20 Lat,Lon Distance(km) Time Diff (sec)
1 05/06/2023 08:37:30 0.16,-108.36 0.13,-108.26 12.25 80
2 05/08/2023 20:40:42 -0.15,-108.36 -0.31,-109.02 76.22 80
3 05/09/2023 20:24:37 -0.16,-108.37 0.70,-104.49 441.55 80
4 05/11/2023 08:46:25 0.14,-108.40 0.46,-109.76 155.29 80
5 05/12/2023 08:25:01 0.16,-108.40 -0.56,-105.23 361.69 80
6 05/13/2023 20:46:57 -0.14,-108.38 -0.63,-110.53 245.43 80
7 05/14/2023 20:30:53 -0.15,-108.39 0.39,-106.00 272.66 80
8 05/16/2023 08:52:41 0.13,-108.44 0.76,-111.27 322.04 80
9 05/17/2023 08:31:17 0.14,-108.44 -0.26,-106.74 195.24 80
10 05/18/2023 20:53:13 -0.11,-108.41 -0.92,-112.04 413.49 80
